カタログに戻る

KUIPER-00244

運用中通信LEO
NORAD 68583·PAYLOAD·🇺🇸 United States

打ち上げ Apr 4, 2026 から Cape Canaveral Space Force Station

Loading…

次のパス (今後24時間)

TLE

最新Source: CelesTrak SupGP

元期: Sep 14, 2026, 19:01 UTC

1 68583C 26072L   26257.79276620 -.00000595  00000+0 -77885-4 0  2574
2 68583  51.8983 144.4265 0001042  89.8529 129.1571 14.79923248    16

AllMySatでKUIPER-00244をリアルタイム追跡

Download on the App Store